{"data":{"norad_id":67629,"epoch":"2026-09-19T00:25:57.722880Z","epoch_age_seconds":197002,"freshness":"STALE","line1":"1 67629U 26020N   26262.01802920  .00011251  00000+0  41762-3 0  9992","line2":"2 67629  43.0050 127.7041 0001552 264.6427  95.4248 15.27590226 35683","mean_motion":15.27590226,"eccentricity":0.0001552,"inclination_deg":43.005,"raan_deg":127.7041,"arg_perigee_deg":264.6427,"mean_anomaly_deg":95.4248,"bstar":0.00041762,"rev_number":3568,"period_min":94.266117672842,"perigee_km":481.95362455783,"apogee_km":484.08332721754,"semimajor_km":6861.1554758877,"source":"CELESTRAK","updated_at":"2026-09-20T09:00:43.613466Z"}}